Simultaneous Nadir Overpasses (SNOs) Predictions

Prediction of SNOs between METOP-A and NOAA-19 Satellite Orbit:

Table of predicted SNOs for the next 14.0 days since TLE Epoch: 8/14/2015
Index Date (METOP-A) Time (METOP-A) Lat,Lon (METOP-A) SZA (METOP-A ) Date (NOAA-19) Time (NOAA-19) Lat,Lon (NOAA-19) SZA (NOAA-19 ) Distance(km) Time Diff (sec)
1 08/18/2015 11:18:24 75.77, 9.35 62.58 08/18/2015 11:17:17 75.76, 6.36 62.63 82.04 67
2 08/18/2015 12:09:16 -75.29, 175.22 117.87 08/18/2015 12:08:13 -75.30, 175.08 117.85 3.99 63
3 08/18/2015 12:59:56 75.27, -17.51 62.13 08/18/2015 12:59:09 75.27, -17.57 62.13 1.88 47
4 08/18/2015 13:50:39 -75.23, 149.67 117.91 08/18/2015 13:50:14 -75.23, 149.79 117.91 3.31 25
5 08/18/2015 14:41:18 75.25, -42.91 62.13 08/18/2015 14:41:11 75.25, -43.00 62.13 2.77 7
6
